Location: Unspecified
(0.0000°N, 0.0000°E)
Time: 21:58:29
(UTC+00:00)

ISS - Pass Details

Date: 09 January 2026
Orbit: 414 x 424 km, 51.6° (Epoch: 13 January)

Event Time Altitude Azimuth Distance (km) Brightness Sun altitude
Exits shadow 04:13:09 12° 54° (NE) 1,380 -0.8 -26.2°
Drops below altitude 10° 04:14:33 10° 78° (ENE) 1,502 -0.3 -25.9°
Enters shadow 05:11:34 -71° 322° (NW) 12,468 3.6 -12.8°
Maximum altitude 05:49:45 22° 234° (SW) 988 -2.1 -4.0°
